{"data":{"norad_id":67078,"intl_designator":"2025-298D","name":"STARLINK-36236","alt_names":[],"object_type":"PAYLOAD","status":"ACTIVE","operator":null,"country":"US","launch_date":"2025-12-14","launch_site_code":"AFWTR","launch_vehicle":null,"mission":null,"orbit_class":"UNKNOWN","rcs_meters":null,"size_class":null,"mass_kg":null,"dimensions":null,"purposes":["comms"],"wikipedia_slug":null,"has_3d_model":false,"image_url":null,"decayed_at":null,"tle_current":{"epoch":"2026-09-20T08:35:24.669024Z","epoch_age_seconds":93984,"freshness":"FRESH","line1":"1 67078U 25298D   26263.35792441  .00002411  00000+0  20979-3 0  9995","line2":"2 67078  69.9996 243.7542 0003578 269.0279  91.0470 14.98336662 42378","mean_motion":14.98336662,"eccentricity":0.0003578,"inclination_deg":69.9996,"raan_deg":243.7542,"arg_perigee_deg":269.0279,"mean_anomaly_deg":91.047,"bstar":0.00020979,"rev_number":4237,"period_min":96.106571808626,"perigee_km":569.54851769018,"apogee_km":574.52206098042,"semimajor_km":6950.1722893353,"source":"CELESTRAK","updated_at":"2026-09-21T09:00:36.097887Z"}}}